Regional Weather Roundup
Issued by NWS

Home | Current Version | Previous Version | Graphics & Text | Print | Product List | Glossary On
Versions: 1 2 3 4 5 6 7 8 9 10 11 12 13 14 15 16 17 18 19 20 21 22 23 24 25 26 27 28 29 30 31 32 33 34 35 36 37 38 39 40 41 42 43 44 45 46 47 48 49 50
000
ASUS43 KMKX 280721
RWRWI

WISCONSIN REGIONAL WEATHER ROUNDUP
NATIONAL WEATHER SERVICE MILWAUKEE/SULLIVAN WI
200 AM CDT THU MAY 28 2015

NOTE: "FAIR" INDICATES FEW OR NO CLOUDS BELOW 12,000 FEET WITH NO
SIGNIFICANT WEATHER AND/OR OBSTRUCTIONS TO VISIBILITY.

WIZ001-002-006>008-014>016-023>028-280800-
NORTHWEST WISCONSIN

CITY           SKY/WX    TMP DP  RH WIND       PRES   REMARKS
SUPERIOR ARPT  CLEAR     48  43  82 NE10      30.09R
ASHLAND        CLEAR     51  47  86 N8        30.08R
HAYWARD        CLEAR     51  50  96 CALM      30.06S
SIREN          CLEAR     54  52  92 CALM      30.05R
CUMBERLAND     CLEAR     54  52  94 CALM      30.07R FOG
RICE LAKE      CLEAR     55  53  93 CALM      30.08R
CHETEK         CLEAR     54  54  99 CALM      30.07R FOG
LADYSMITH      CLEAR     53  52  97 CALM      30.09S FOG
EAU CLAIRE     CLEAR     61  54  77 S3        30.06R
MENOMONIE      CLEAR     60  58  94 CALM      30.06S
NEW RICHMOND   CLEAR     61  56  83 SE3       30.05S
OSCEOLA        CLEAR     55  55 100 CALM      30.07S
$$

WIZ003>005-009-010-017-018-280800-
NORTH CENTRAL WISCONSIN

CITY           SKY/WX    TMP DP  RH WIND       PRES   REMARKS
MANITOWISH WTR FOG       49  49 100 CALM      30.09R VSB 1
ARBOR VITAE    CLEAR     52  50  95 CALM      30.10R FOG
WOODRUFF       CLEAR     52  50  95 CALM      30.10R FOG
RHINELANDER    CLEAR     51  50  96 CALM      30.10R FOG
EAGLE RIVER    CLEAR     50  50 100 CALM      30.10R FOG
LAND O LAKES   CLEAR     46  46 100 CALM      30.11R FOG
PHILLIPS       CLEAR     52  52 100 CALM      30.08S FOG
TOMAHAWK       CLEAR     50  49  97 CALM      30.10R FOG
MEDFORD        CLEAR     54  53  95 S6        30.09R
MERRILL        FOG       51  51 100 CALM      30.10R VSB 1/2
$$

WIZ029-030-035-036-043>047-280800-
CENTRAL WISCONSIN

CITY           SKY/WX    TMP DP  RH WIND       PRES   REMARKS
WAUSAU         CLEAR     58  56  93 S7        30.08R
MOSINEE        CLEAR     54  54 100 S3        30.11S
MARSHFIELD     CLEAR     57  53  86 E3        30.10R
STEVENS POINT  CLEAR     54  54 100 CALM      30.11R FOG
WAUPACA        FOG       57  56  97 CALM      30.11R VSB 1/2
WAUTOMA        FOG       57  57 100 CALM      30.11R VSB 3/4
WISC RAPIDS    CLEAR     56  53  90 SW3       30.10S
CAMP DOUGLAS   CLEAR     58  58 100 SE1       30.10R
$$

WIZ011>013-019>022-031-037>040-048>050-280800-
NORTHEAST WISCONSIN

CITY           SKY/WX    TMP DP  RH WIND       PRES   REMARKS
ANTIGO         CLEAR     52  52 100 CALM      30.10S
SHAWANO        FOG       54  53  94 CALM      30.09R VSB<1/4
OCONTO           N/A     51  51 100 CALM      30.08S VSB 3/4
STURGEON BAY   CLEAR     57  54  88 S3        30.11R
GREEN BAY      CLEAR     60  55  83 SW5       30.09R
MANITOWOC      PTCLDY    53  51  93 CALM      30.10S
APPLETON       CLEAR     55  55 100 SW6       30.11R
CLINTONVILLE   CLEAR     54  54 100 S3        30.09R FOG
OSHKOSH        CLEAR     58  55  90 SW5       30.10R
$$

WIZ032>034-041-042-053>061-280800-
SOUTHWEST WISCONSIN

CITY           SKY/WX    TMP DP  RH WIND       PRES   REMARKS
LA CROSSE      CLEAR     65  61  87 S6        30.08R
SPARTA         CLEAR     54  53  97 CALM      30.11R
VIROQUA        CLEAR     64  57  80 S8        30.11S
BOSCOBEL       FOG       56  55  97 CALM      30.12R VSB 1/4
PRAIRIE DU CHI CLEAR     58  56  91 CALM      30.11S
PLATTEVILLE    CLEAR     62  59  88 S5        30.14S
$$

WIZ056-057-062-063-064-067-068-280800-
SOUTH CENTRAL WISCONSIN

CITY           SKY/WX    TMP DP  RH WIND       PRES   REMARKS
REEDSBURG      CLEAR     60  58  92 CALM      30.11S
BARABOO/DELLS  CLEAR     60  55  83 CALM      30.12R
LONE ROCK      CLEAR     59  56  89 CALM      30.12R
MINERAL POINT  CLEAR     64  59  82 S5        30.14S
MADISON        CLEAR     64  58  80 S6        30.13R
MIDDLETON      CLEAR     67  57  69 SW10      30.13R
WATERTOWN      CLEAR    N/A N/A N/A CALM      30.13R
MONROE         CLEAR     64  57  77 SW12      30.15R
JANESVILLE     CLEAR     61  57  88 CALM      30.14R
$$

WIZ051-052-058>065-066-070>072-280800-
SOUTHEAST WISCONSIN

CITY           SKY/WX    TMP DP  RH WIND       PRES   REMARKS
MILWAUKEE      CLEAR     60  55  83 SW5       30.13R
WAUKESHA       CLEAR     61  54  77 SW7       30.15R
MILWAUKEE/TIMM PTCLDY    59  52  77 S5        30.13R
RACINE         CLEAR     58  54  86 SW6       30.15S
BURLINGTON     CLEAR     54  54  98 S5        30.14R
KENOSHA        CLEAR     58  55  90 S7        30.15R
FOND DU LAC    CLEAR     60  56  86 CALM      30.11R
SHEBOYGAN      MOCLDY    60  56  86 W3        30.10S
WEST BEND      PTCLDY    64  55  72 SW5       30.13R
JUNEAU         MOCLDY    62  58  86 S3        30.13S
$$

LSZ147-162-280800-
LAKE SUPERIOR

STATION/POSITION TIME  TEMP    WIND        PRES    WAVE
                       AIR SEA DIR/SP/G            HT/PER
                 (UTC) (F)     (DEG/KT/KT) (MB)    (FT/S)
W MID LAKE BUOY  0650   42 37   60/ 17/ 21   N/A     1/ 3
DEVILS ISLAND    0700   45      60/ 15/ 16   N/A
SAXON HARBOR     0600   52        CALM       N/A
$$

LMZ867-665-643>646-280800-
LAKE MICHIGAN

STATION/POSITION TIME  TEMP    WIND        PRES    WAVE
                       AIR SEA DIR/SP/G            HT/PER
                 (UTC) (F)     (DEG/KT/KT) (MB)    (FT/S)
CHAMBERS ISLAND  0600   59     190/  4/  6   N/A
N MID LAKE BUOY  0650   45 36  200/ 14/ 16   N/A     1/ 4
NORTHPORT PIER   0600   51     160/  7/  9   N/A
SISTER BAY       0603   60        CALM       N/A
ALGOMA LAKESHORE 0608          230/  3/  5   N/A
KEWAUNEE LAKESHO 0600   54     290/  2/  5   N/A
SHEBOYGAN LAKESH 0700   60     200/  5/  5   N/A
PORT WASHINGTON  0600   52     230/  2/  8   N/A
ATWATER BUOY     0600   53 49  160/  8/  8   N/A
MILWAUKEE LAKESH 0600   64     230/  8/  9   N/A
S MID LAKE BUOY  0650   43 38  210/  8/ 10   N/A     0
KENOSHA   LAKESH 0700   61     230/  6/  9   N/A
$$

TC  - TEMPERATURE IN CELSIUS
VSB - VISIBILITY IN STATUTE MILES
WCI - WIND CHILL INDEX
HX  - HEAT INDEX




USA.gov is the U.S. government's official web portal to all federal, state and local government web resources and services.